Nashua, NH

1:58 AM EDT on September 26, 2016 (GMT -0400)
Boire

Weather History for KASH - March, 2012

Change the Weather History Date:

Thursday, March 15, 2012

  Actual Average Record
Temperature  
Mean Temperature 40 °F -  
Max Temperature 44 °F 45 °F 74 °F (1990)
Min Temperature 36 °F 24 °F 4 °F (1993)
Degree Days  
Heating Degree Days 25    
Moisture  
Dew Point 32 °F    
Average Humidity 75    
Maximum Humidity 93    
Minimum Humidity 61    
Precipitation  
Precipitation 0.00 in - - ()
Sea Level Pressure  
Sea Level Pressure 30.35 in    
Wind  
Wind Speed 5 mph (ESE)    
Max Wind Speed 7 mph    
Max Gust Speed -    
Visibility 10 miles    
Events      
Averages and records for this station are not official NWS values.
T = Trace of Precipitation, MM = Missing Value Source: NWS Daily Summary

Daily Weather History Graph

Daily Weather History Graph

Search for Another Location

Airport or City:

Trip Planner

Search our weather history database for the weather conditions in past years. The results will help you decide how hot, cold, wet, or windy it might be!

Date:

Astronomy

Mar. 15, 2012 Rise Set
Actual Time 6:57 AM EDT 6:53 PM EDT
Civil Twilight 6:29 AM EDT 7:21 PM EDT
Nautical Twilight 5:56 AM EDT 7:54 PM EDT
Astronomical Twilight 5:22 AM EDT 8:27 PM EDT
Moon 2:30 AM EDT (3/15) 11:58 AM EDT (3/15)
Length of Visible Light 12h 52m
Length of Day
11h 55m
Last Quarter, 43% of the Moon is Illuminated
Mar 15
Last Quarter
Mar 22
New
Mar 30
First Quarter
Apr 6
Full
Apr 13
Last Quarter

Hourly Weather History & Observations

Time (EDT) Temp. Windchill Dew Point Humidity Pressure Visibility Wind Dir Wind Speed Gust Speed Precip Events Conditions
12:51 AM 38.8 °F 34.6 °F 36.0 °F 89% 30.28 in 10.0 mi East 5.8 mph - N/A   Overcast
1:51 AM 38.8 °F 36.5 °F 36.0 °F 89% 30.30 in 10.0 mi Variable 3.5 mph - N/A   Overcast
2:35 AM 39.2 °F 37.0 °F 35.6 °F 87% 30.29 in 10.0 mi East 3.5 mph - N/A   Overcast
3:44 AM 37.4 °F 32.1 °F 35.6 °F 93% 30.30 in 10.0 mi ENE 6.9 mph - N/A   Overcast
3:51 AM 37.9 °F 32.7 °F 34.9 °F 89% 30.32 in 10.0 mi NE 6.9 mph - N/A   Overcast
4:51 AM 36.9 °F 34.3 °F 34.0 °F 89% 30.34 in 10.0 mi ENE 3.5 mph - N/A   Mostly Cloudy
5:51 AM 36.9 °F 31.4 °F 34.0 °F 89% 30.35 in 10.0 mi ENE 6.9 mph - N/A   Overcast
6:51 AM 36.9 °F 33.1 °F 32.0 °F 83% 30.37 in 10.0 mi East 4.6 mph - N/A   Overcast
7:43 AM 37.4 °F 34.9 °F 30.2 °F 75% 30.38 in 10.0 mi NNE 3.5 mph - N/A   Overcast
7:51 AM 36.9 °F 33.1 °F 30.0 °F 76% 30.39 in 10.0 mi ENE 4.6 mph - N/A   Overcast
8:51 AM 36.9 °F 32.2 °F 29.1 °F 74% 30.39 in 10.0 mi ENE 5.8 mph - N/A   Overcast
9:51 AM 37.9 °F - 29.1 °F 71% 30.40 in 10.0 mi Calm Calm - N/A   Overcast
10:51 AM 37.9 °F 35.5 °F 30.0 °F 73% 30.40 in 10.0 mi Variable 3.5 mph - N/A   Overcast
11:51 AM 39.9 °F 37.8 °F 31.1 °F 71% 30.38 in 10.0 mi SE 3.5 mph - N/A   Overcast
12:51 PM 41.0 °F 39.0 °F 31.1 °F 68% 30.38 in 10.0 mi East 3.5 mph - N/A   Overcast
1:51 PM 43.9 °F 42.3 °F 32.0 °F 63% 30.35 in 10.0 mi Variable 3.5 mph - N/A   Overcast
2:30 PM 44.6 °F 41.4 °F 32.0 °F 61% 30.32 in 10.0 mi SE 5.8 mph - N/A   Scattered Clouds
2:37 PM 44.6 °F 42.2 °F 32.0 °F 61% 30.32 in 10.0 mi East 4.6 mph - N/A   Mostly Cloudy
2:51 PM 43.9 °F 40.5 °F 32.0 °F 63% 30.34 in 10.0 mi SE 5.8 mph - N/A   Mostly Cloudy
3:51 PM 43.9 °F 41.3 °F 32.0 °F 63% 30.34 in 10.0 mi SE 4.6 mph - N/A   Mostly Cloudy
4:06 PM 44.6 °F 43.1 °F 32.0 °F 61% 30.32 in 10.0 mi Variable 3.5 mph - N/A   Mostly Cloudy
4:51 PM 43.9 °F 40.5 °F 32.9 °F 65% 30.32 in 10.0 mi East 5.8 mph - 0.00 in   Overcast
5:51 PM 43.9 °F 41.3 °F 32.9 °F 65% 30.34 in 10.0 mi SE 4.6 mph - N/A   Overcast
6:00 PM 42.8 °F 39.3 °F 33.8 °F 70% 30.32 in 10.0 mi SSE 5.8 mph - N/A   Mostly Cloudy
6:51 PM 41.0 °F 37.1 °F 32.9 °F 73% 30.36 in 10.0 mi SE 5.8 mph - N/A   Mostly Cloudy
7:51 PM 39.9 °F 35.8 °F 32.0 °F 73% 30.38 in 10.0 mi ESE 5.8 mph - N/A   Overcast
8:51 PM 38.8 °F 36.5 °F 32.0 °F 76% 30.37 in 10.0 mi SSE 3.5 mph - N/A   Overcast
9:51 PM 37.9 °F 33.5 °F 32.0 °F 79% 30.38 in 10.0 mi SE 5.8 mph - N/A   Mostly Cloudy
10:23 PM 37.4 °F 34.9 °F 32.0 °F 81% 30.36 in 10.0 mi SSE 3.5 mph - N/A   Overcast
10:51 PM 37.9 °F 35.5 °F 32.0 °F 79% 30.38 in 10.0 mi Variable 3.5 mph - N/A   Overcast
11:06 PM 37.4 °F 33.8 °F 32.0 °F 81% 30.36 in 10.0 mi SE 4.6 mph - N/A   Overcast
11:51 PM 36.9 °F 34.3 °F 32.0 °F 83% 30.38 in 10.0 mi Variable 3.5 mph - N/A   Overcast